ORBCOMM FM106 [-]

Last updated on Fri Dec 29 2023 00:02:54 GMT+0000 (Coordinated Universal Time)

1 40088U 14040C 23361.78908256 .00001905 00000+0 37345-3 0 9998 2 40088 47.0601 254.2538 0017660 94.7994 265.4912 14.66397151504529
UTC large
Height (km)
Speed (km/s)
/
Latitude / Longitude
Inclination (degrees)
Orbital Period (minutes)
Azimuth
Elevation
Range (km)
Doppler Factor

Next 0 passes for location: London (51.5072 / 0.1276)

Sorry there are no passes over London.